TimeEST,TemperatureF,Dew PointF,Humidity,Sea Level PressureIn,VisibilityMPH,Wind Direction,Wind SpeedMPH,Gust SpeedMPH,PrecipitationIn,Events,Conditions,WindDirDegrees,DateUTC
12:53 AM,32.0,25.0,75,30.15,10.0,SE,3.5,-,N/A,,Overcast,130,2012-12-28 05:53:00
1:53 AM,32.0,25.0,75,30.17,10.0,ESE,4.6,-,N/A,,Overcast,120,2012-12-28 06:53:00
2:53 AM,32.0,25.0,75,30.15,10.0,SE,5.8,-,N/A,,Overcast,130,2012-12-28 07:53:00
3:53 AM,32.0,25.0,75,30.15,10.0,ESE,4.6,-,N/A,,Overcast,120,2012-12-28 08:53:00
4:53 AM,30.9,25.0,79,30.13,10.0,ESE,5.8,-,N/A,,Overcast,120,2012-12-28 09:53:00
5:53 AM,30.9,25.0,79,30.12,10.0,SE,5.8,-,N/A,,Overcast,130,2012-12-28 10:53:00
6:53 AM,30.9,25.0,79,30.11,10.0,East,4.6,-,N/A,,Overcast,100,2012-12-28 11:53:00
7:53 AM,30.9,26.1,82,30.12,10.0,SSE,3.5,-,N/A,,Overcast,150,2012-12-28 12:53:00
8:53 AM,32.0,26.1,79,30.14,10.0,SE,4.6,-,N/A,,Overcast,130,2012-12-28 13:53:00
9:53 AM,32.0,26.1,79,30.15,10.0,Calm,Calm,-,N/A,,Overcast,0,2012-12-28 14:53:00
10:53 AM,33.1,27.0,78,30.16,10.0,Calm,Calm,-,N/A,,Overcast,0,2012-12-28 15:53:00
11:53 AM,34.0,28.0,79,30.11,10.0,ESE,3.5,-,N/A,,Overcast,120,2012-12-28 16:53:00
12:53 PM,35.1,28.0,76,30.04,10.0,SE,4.6,-,N/A,,Overcast,130,2012-12-28 17:53:00
1:53 PM,36.0,28.9,76,30.03,10.0,SSE,5.8,-,N/A,,Overcast,150,2012-12-28 18:53:00
2:53 PM,36.0,28.9,76,29.99,10.0,SSE,4.6,-,N/A,,Overcast,160,2012-12-28 19:53:00
3:46 PM,37.4,28.4,70,29.98,10.0,SSE,5.8,-,N/A,,Scattered Clouds,160,2012-12-28 20:46:00
3:53 PM,37.0,28.9,73,29.99,10.0,ESE,5.8,-,N/A,,Scattered Clouds,120,2012-12-28 20:53:00
4:53 PM,37.0,30.0,76,29.99,10.0,Variable,3.5,-,N/A,,Mostly Cloudy,0,2012-12-28 21:53:00
5:53 PM,37.0,30.0,76,29.96,10.0,East,3.5,-,N/A,,Overcast,100,2012-12-28 22:53:00
6:53 PM,37.0,30.0,76,29.94,10.0,ENE,4.6,-,N/A,,Overcast,70,2012-12-28 23:53:00
7:53 PM,36.0,32.0,86,29.92,6.0,East,5.8,-,0.00,Snow,Light Snow,90,2012-12-29 00:53:00
8:35 PM,35.6,33.8,93,29.88,3.0,NNE,3.5,-,0.02,Snow,Light Snow,30,2012-12-29 01:35:00
8:53 PM,34.0,33.1,96,29.88,4.0,ENE,5.8,-,0.02,,Overcast,60,2012-12-29 01:53:00
9:08 PM,33.8,33.8,100,29.86,4.0,ENE,5.8,-,0.00,,Overcast,70,2012-12-29 02:08:00
9:22 PM,33.8,33.8,100,29.86,5.0,ENE,3.5,-,0.00,Rain,Light Rain,60,2012-12-29 02:22:00
9:44 PM,33.8,33.8,100,29.87,2.5,Calm,Calm,-,0.01,Snow,Light Snow,0,2012-12-29 02:44:00
9:53 PM,34.0,33.1,96,29.88,2.0,Calm,Calm,-,0.02,Snow,Light Snow,0,2012-12-29 02:53:00
10:13 PM,33.8,32.0,93,29.86,1.8,Calm,Calm,-,0.02,Snow,Light Snow,0,2012-12-29 03:13:00
10:44 PM,33.8,33.8,100,29.85,1.2,Calm,Calm,-,0.04,Snow,Light Snow,0,2012-12-29 03:44:00
10:53 PM,33.1,33.1,100,29.86,1.2,Calm,Calm,-,0.04,Snow,Light Snow,0,2012-12-29 03:53:00
11:43 PM,33.8,33.8,100,29.81,2.0,Calm,Calm,-,0.04,Snow,Light Snow,0,2012-12-29 04:43:00
11:50 PM,33.8,33.8,100,29.81,1.8,Calm,Calm,-,0.04,Snow,Light Snow,0,2012-12-29 04:50:00
11:53 PM,33.1,33.1,100,29.81,1.8,NNE,3.5,-,0.05,Snow,Light Snow,20,2012-12-29 04:53:00